Hourly Data Report for October 08, 2013

All times are specified in Local Standard Time (LST). Add 1 hour to adjust for Daylight Saving Time where and when it is observed.

RANKIN INLET A
NUNAVUT

62°48'38.000" N
92°06'53.000" W
32.30 m
2303405
71083
YRT

Related Data

No related data is available for this station

Download Data

Hourly Data (October 2013)
Hourly Data Report for October 8, 2013
Temp Definition
°C
Dew Point Temp Definition
°C
Rel Hum Definition
%
Wind Dir Definition
10's deg

Wind Spd Definition
km/h
Visibility Definition
km
Stn Press Definition
kPa
Hmdx Definition


Wind Chill Definition


Weather Definition


TIME
00:00 Legend Double Dagger -2.1 -4.8 82 2 28 24.1 100.67   -9 Cloudy
01:00 Legend Double Dagger -2.3 -5.3 80 2 24 24.1 100.72   -9 LegendNANA
02:00 Legend Double Dagger -2.8 -5.0 85 2 28 24.1 100.75   -10 LegendNANA
03:00 Legend Double Dagger -2.6 -5.6 80 3 27 24.1 100.79   -10 Cloudy
04:00 Legend Double Dagger -2.3 -5.8 77 3 26 24.1 100.82   -9 LegendNANA
05:00 Legend Double Dagger -2.3 -6.0 76 3 29 24.1 100.87   -9 LegendNANA
06:00 Legend Double Dagger -2.3 -5.8 77 3 30 24.1 100.92   -9 Cloudy
07:00 Legend Double Dagger -2.4 -6.1 76 3 25 24.1 100.98   -9 Snow Showers
08:00 Legend Double Dagger -2.5 -6.0 77 3 26 24.1 101.01   -9 Snow Showers
09:00 Legend Double Dagger -2.6 -6.4 75 4 21 24.1 101.06   -9 Snow Showers
10:00 Legend Double Dagger -2.8 -6.8 74 4 22 24.1 101.10   -9 Snow Showers
11:00 Legend Double Dagger -2.8 -6.6 75 2 18 24.1 101.14   -8 Snow Showers
12:00 Legend Double Dagger -2.4 -6.1 76 36 18 24.1 101.17   -8 Cloudy
13:00 Legend Double Dagger -2.5 -6.3 75 34 21 24.1 101.20   -9 LegendNANA
14:00 Legend Double Dagger -2.6 -6.4 75 35 15 24.1 101.25   -8 LegendNANA
15:00 Legend Double Dagger -2.7 -6.4 76 34 20 24.1 101.26   -9 Cloudy
16:00 Legend Double Dagger -3.2 -6.9 76 35 26 24.1 101.27   -10 LegendNANA
17:00 Legend Double Dagger -3.6 -7.2 76 34 20 24.1 101.31   -10 LegendNANA
18:00 Legend Double Dagger -3.5 -7.0 77 35 21 24.1 101.34   -10 Cloudy
19:00 Legend Double Dagger -3.7 -7.0 78 35 22 24.1 101.38   -10 LegendNANA
20:00 Legend Double Dagger -3.8 -6.9 79 35 17 24.1 101.39   -10 LegendNANA
21:00 Legend Double Dagger -4.0 -7.3 78 32 19 24.1 101.41   -10 Cloudy
22:00 Legend Double Dagger -3.8 -6.9 79 35 23 24.1 101.43   -11 LegendNANA
23:00 Legend Double Dagger -3.9 -7.2 78 35 20 24.1 101.43   -10 LegendNANA

Notes on Data Quality.

Legend

  • E = Estimated
  • M = Missing
  • NA = Not Available
  • ‡ = Partner data that is not subject to review by the National Climate Archives
Date modified: